| time (UTC) | temp F | wind direction | speed MPH | gust MPH | rain 1hr in | rain 24hr in | rain mn in | humidity % | barometer mb |
| 20260510051454 | 77 | 146 | 0.0 | 0.0 | 0.00 | 0.00 | 0.00 | 88 | 1013.8 |
| 20260510050951 | 77 | 163 | 0.0 | 0.0 | 0.00 | 0.00 | 0.00 | 88 | 1014.0 |
| 20260510050448 | 77 | 159 | 0.0 | 0.0 | 0.00 | 0.00 | 0.00 | 88 | 1013.8 |
| 20260510045945 | 77 | 166 | 0.0 | 0.0 | 0.00 | 0.00 | 0.00 | 88 | 1013.9 |
| 20260510045443 | 77 | 155 | 0.0 | 0.0 | 0.00 | 0.00 | 0.00 | 88 | 1013.9 |
| 20260510044939 | 77 | 128 | 0.0 | 0.0 | 0.00 | 0.00 | 0.00 | 89 | 1013.9 |
| 20260510044436 | 77 | 157 | 0.0 | 0.0 | 0.00 | 0.00 | 0.00 | 89 | 1014.1 |
| 20260510043933 | 77 | 151 | 0.0 | 0.0 | 0.00 | 0.00 | 0.00 | 89 | 1013.9 |
| 20260510043428 | 77 | 151 | 0.0 | 0.0 | 0.00 | 0.00 | 0.00 | 89 | 1014.0 |
| 20260510042927 | 77 | 147 | 0.0 | 0.0 | 0.00 | 0.00 | 0.00 | 89 | 1014.0 |
| 20260510042423 | 76 | 151 | 0.0 | 0.0 | 0.00 | 0.00 | 0.00 | 89 | 1013.7 |
| 20260510041918 | 76 | 154 | 0.0 | 0.0 | 0.00 | 0.00 | 0.00 | 89 | 1014.1 |
| 20260510041416 | 76 | 153 | 0.0 | 0.0 | 0.00 | 0.00 | 0.00 | 89 | 1014.0 |
| 20260510040914 | 76 | 153 | 0.0 | 0.0 | 0.00 | 0.00 | 0.00 | 89 | 1013.9 |
| 20260510040410 | 76 | 149 | 0.0 | 0.0 | 0.00 | 0.00 | 0.00 | 89 | 1013.9 |
| 20260510035905 | 76 | 140 | 0.0 | 0.0 | 0.00 | 0.00 | 0.00 | 89 | 1013.9 |
| 20260510035402 | 76 | 138 | 0.0 | 0.0 | 0.00 | 0.00 | 0.00 | 89 | 1013.7 |
| 20260510034857 | 76 | 158 | 0.0 | 0.0 | 0.00 | 0.00 | 0.00 | 89 | 1014.0 |
| 20260510034356 | 77 | 158 | 0.0 | 0.0 | 0.00 | 0.00 | 0.00 | 88 | 1013.7 |
| 20260510033851 | 77 | 153 | 0.0 | 0.0 | 0.00 | 0.00 | 0.00 | 88 | 1013.8 |
| 20260510033348 | 77 | 146 | 0.0 | 0.0 | 0.00 | 0.00 | 0.00 | 87 | 1013.7 |
| 20260510032844 | 77 | 154 | 0.0 | 0.0 | 0.00 | 0.00 | 0.00 | 87 | 1013.6 |
| 20260510032341 | 77 | 150 | 0.0 | 0.0 | 0.00 | 0.00 | 0.00 | 86 | 1013.7 |
| 20260510031837 | 78 | 157 | 0.0 | 0.0 | 0.00 | 0.00 | 0.00 | 86 | 1013.7 |
| 20260510031333 | 78 | 159 | 0.0 | 0.0 | 0.00 | 0.00 | 0.00 | 86 | 1013.6 |
| 20260510030832 | 78 | 154 | 0.0 | 0.0 | 0.00 | 0.00 | 0.00 | 85 | 1013.9 |
| 20260510030329 | 78 | 141 | 0.0 | 0.0 | 0.00 | 0.00 | 0.00 | 85 | 1013.7 |
| 20260510025826 | 78 | 145 | 0.0 | 0.0 | 0.00 | 0.00 | 0.00 | 85 | 1013.8 |
| 20260510025324 | 78 | 147 | 0.0 | 0.0 | 0.00 | 0.00 | 0.00 | 84 | 1013.7 |
| 20260510024820 | 78 | 142 | 0.0 | 0.0 | 0.00 | 0.00 | 0.00 | 84 | 1013.6 |
| 20260510024318 | 78 | 156 | 0.0 | 0.0 | 0.00 | 0.00 | 0.00 | 84 | 1013.7 |
| 20260510023814 | 78 | 149 | 0.0 | 0.0 | 0.00 | 0.00 | 0.00 | 84 | 1013.6 |
| 20260510023310 | 78 | 136 | 0.0 | 0.0 | 0.00 | 0.00 | 0.00 | 83 | 1013.7 |
| 20260510022807 | 78 | 163 | 0.0 | 0.0 | 0.00 | 0.00 | 0.00 | 84 | 1013.6 |
| 20260510022307 | 78 | 158 | 0.0 | 0.0 | 0.00 | 0.00 | 0.00 | 83 | 1013.7 |
| 20260510021806 | 78 | 150 | 0.0 | 0.0 | 0.00 | 0.00 | 0.00 | 83 | 1013.5 |
| 20260510021304 | 78 | 152 | 0.0 | 0.0 | 0.00 | 0.00 | 0.00 | 83 | 1013.7 |
| 20260510020759 | 78 | 151 | 0.0 | 0.0 | 0.00 | 0.00 | 0.00 | 83 | 1013.6 |
| 20260510020254 | 78 | 147 | 0.0 | 0.0 | 0.00 | 0.00 | 0.00 | 82 | 1013.5 |
| 20260510015750 | 78 | 148 | 0.0 | 0.0 | 0.00 | 0.00 | 0.00 | 81 | 1013.4 |
| 20260510015247 | 78 | 152 | 0.0 | 0.0 | 0.00 | 0.00 | 0.00 | 80 | 1013.4 |
| 20260510014741 | 79 | 151 | 0.0 | 0.0 | 0.00 | 0.00 | 0.00 | 80 | 1013.3 |
| 20260510014239 | 80 | 155 | 0.0 | 0.0 | 0.00 | 0.00 | 0.00 | 80 | 1012.9 |
| 20260510013735 | 80 | 225 | 0.0 | 0.0 | 0.00 | 0.00 | 0.00 | 80 | 1013.1 |
| 20260510013230 | 80 | 163 | 0.0 | 0.0 | 0.00 | 0.00 | 0.00 | 80 | 1013.1 |
| 20260510012725 | 80 | 162 | 0.0 | 0.0 | 0.00 | 0.00 | 0.00 | 79 | 1012.7 |
| 20260510012221 | 80 | 225 | 0.0 | 0.0 | 0.00 | 0.00 | 0.00 | 79 | 1012.7 |
| 20260510011720 | 80 | 280 | 0.0 | 0.0 | 0.00 | 0.00 | 0.00 | 78 | 1012.7 |
| 20260510011216 | 80 | 297 | 0.0 | 0.0 | 0.00 | 0.00 | 0.00 | 78 | 1012.5 |
| 20260510010713 | 80 | 183 | 0.0 | 0.0 | 0.00 | 0.00 | 0.00 | 78 | 1012.5 |
| 20260510010210 | 81 | 256 | 0.0 | 0.0 | 0.00 | 0.00 | 0.00 | 77 | 1012.5 |
| 20260510005707 | 81 | 234 | 0.0 | 0.0 | 0.00 | 0.00 | 0.00 | 77 | 1012.4 |
| 20260510005203 | 81 | 218 | 0.0 | 0.0 | 0.00 | 0.00 | 0.00 | 76 | 1012.5 |
| 20260510004702 | 81 | 292 | 0.0 | 0.0 | 0.00 | 0.00 | 0.00 | 75 | 1012.3 |
| 20260510004159 | 81 | 258 | 0.0 | 0.0 | 0.00 | 0.00 | 0.00 | 74 | 1012.0 |
| 20260510003656 | 81 | 255 | 0.0 | 0.0 | 0.00 | 0.00 | 0.00 | 73 | 1012.5 |
| 20260510003152 | 82 | 293 | 0.0 | 0.0 | 0.00 | 0.00 | 0.00 | 72 | 1012.3 |
| 20260510002651 | 82 | 215 | 0.0 | 0.0 | 0.00 | 0.00 | 0.00 | 71 | 1012.3 |
| 20260510002149 | 82 | 322 | 0.0 | 0.0 | 0.00 | 0.00 | 0.00 | 70 | 1011.9 |
| 20260510001646 | 82 | 339 | 0.0 | 0.0 | 0.00 | 0.00 | 0.00 | 69 | 1012.1 |
| 20260510001145 | 82 | 312 | 1.0 | 3.0 | 0.00 | 0.00 | 0.00 | 69 | 1012.1 |
| 20260510000644 | 82 | 260 | 2.0 | 2.0 | 0.00 | 0.00 | 0.00 | 68 | 1011.7 |
| 20260510000143 | 83 | 302 | 5.0 | 5.0 | 0.00 | 0.00 | 0.00 | 67 | 1011.7 |
| 20260509235638 | 83 | 315 | 0.0 | 0.0 | 0.00 | 0.00 | 0.00 | 68 | 1011.7 |
| 20260509235135 | 83 | 244 | 0.0 | 0.0 | 0.00 | 0.00 | 0.00 | 66 | 1011.5 |
| 20260509234631 | 83 | 269 | 0.0 | 1.0 | 0.00 | 0.00 | 0.00 | 65 | 1011.7 |
| 20260509234129 | 84 | 186 | 0.0 | 0.0 | 0.00 | 0.00 | 0.00 | 64 | 1011.6 |
| 20260509233627 | 84 | 143 | 0.0 | 0.0 | 0.00 | 0.00 | 0.00 | 62 | 1011.3 |
| 20260509233124 | 85 | 324 | 4.0 | 5.0 | 0.00 | 0.00 | 0.00 | 61 | 1011.3 |
| 20260509232620 | 85 | 263 | 0.0 | 0.0 | 0.00 | 0.00 | 0.00 | 60 | 1011.4 |
| 20260509232117 | 85 | 282 | 2.0 | 5.0 | 0.00 | 0.00 | 0.00 | 59 | 1011.3 |
| 20260509231614 | 86 | 19 | 2.0 | 3.0 | 0.00 | 0.00 | 0.00 | 58 | 1011.4 |
| 20260509231111 | 86 | 241 | 0.0 | 2.0 | 0.00 | 0.00 | 0.00 | 57 | 1011.3 |
| 20260509230608 | 86 | 264 | 0.0 | 0.0 | 0.00 | 0.00 | 0.00 | 57 | 1011.2 |
| 20260509230105 | 87 | 272 | 4.0 | 6.0 | 0.00 | 0.00 | 0.00 | 56 | 1011.0 |
| 20260509225601 | 87 | 275 | 0.0 | 0.0 | 0.00 | 0.00 | 0.00 | 59 | 1011.0 |
| 20260509225056 | 87 | 208 | 0.0 | 0.0 | 0.00 | 0.00 | 0.00 | 57 | 1010.9 |
| 20260509224552 | 87 | 248 | 0.0 | 0.0 | 0.00 | 0.00 | 0.00 | 57 | 1010.9 |
| 20260509224049 | 87 | 261 | 3.0 | 5.0 | 0.00 | 0.00 | 0.00 | 56 | 1010.9 |
| 20260509223546 | 87 | 191 | 0.0 | 0.0 | 0.00 | 0.00 | 0.00 | 55 | 1010.9 |
| 20260509223044 | 88 | 243 | 0.0 | 0.0 | 0.00 | 0.00 | 0.00 | 54 | 1010.8 |
| 20260509222539 | 88 | 235 | 0.0 | 0.0 | 0.00 | 0.00 | 0.00 | 53 | 1010.7 |
| 20260509222036 | 89 | 244 | 0.0 | 0.0 | 0.00 | 0.00 | 0.00 | 53 | 1010.9 |
| 20260509221531 | 88 | 303 | 0.0 | 0.0 | 0.00 | 0.00 | 0.00 | 55 | 1010.9 |
| 20260509221027 | 88 | 243 | 0.0 | 1.0 | 0.00 | 0.00 | 0.00 | 54 | 1010.7 |
| 20260509220523 | 89 | 250 | 3.0 | 7.0 | 0.00 | 0.00 | 0.00 | 55 | 1010.7 |
| 20260509220020 | 89 | 245 | 2.0 | 3.0 | 0.00 | 0.00 | 0.00 | 55 | 1010.8 |
| 20260509215515 | 90 | 285 | 3.0 | 7.0 | 0.00 | 0.00 | 0.00 | 55 | 1010.7 |
| 20260509215013 | 90 | 243 | 3.0 | 5.0 | 0.00 | 0.00 | 0.00 | 56 | 1010.5 |
| 20260509214510 | 90 | 276 | 3.0 | 3.0 | 0.00 | 0.00 | 0.00 | 53 | 1010.7 |
| 20260509214007 | 91 | 269 | 3.0 | 5.0 | 0.00 | 0.00 | 0.00 | 54 | 1010.4 |
| 20260509213503 | 91 | 262 | 0.0 | 0.0 | 0.00 | 0.00 | 0.00 | 55 | 1010.6 |
| 20260509213000 | 90 | 259 | 5.0 | 6.0 | 0.00 | 0.00 | 0.00 | 56 | 1010.4 |
| 20260509212457 | 91 | 254 | 2.0 | 5.0 | 0.00 | 0.00 | 0.00 | 51 | 1010.5 |
| 20260509211954 | 91 | 172 | 1.0 | 3.0 | 0.00 | 0.00 | 0.00 | 49 | 1010.4 |
| 20260509211449 | 90 | 243 | 3.0 | 5.0 | 0.00 | 0.00 | 0.00 | 52 | 1010.1 |
| 20260509210946 | 90 | 248 | 0.0 | 0.0 | 0.00 | 0.00 | 0.00 | 52 | 1010.3 |
| 20260509210443 | 91 | 320 | 3.0 | 6.0 | 0.00 | 0.00 | 0.00 | 53 | 1010.3 |
| 20260509205938 | 91 | 226 | 1.0 | 5.0 | 0.00 | 0.00 | 0.00 | 53 | 1010.0 |
| 20260509205433 | 92 | 218 | 0.0 | 0.0 | 0.00 | 0.00 | 0.00 | 54 | 1010.0 |
| 20260509204929 | 92 | 300 | 4.0 | 7.0 | 0.00 | 0.00 | 0.00 | 53 | 1010.2 |
| 20260509204425 | 91 | 228 | 0.0 | 0.0 | 0.00 | 0.00 | 0.00 | 54 | 1010.1 |
| 20260509203923 | 91 | 243 | 0.0 | 0.0 | 0.00 | 0.00 | 0.00 | 55 | 1010.2 |
| 20260509203418 | 90 | 271 | 6.0 | 8.0 | 0.00 | 0.00 | 0.00 | 55 | 1010.1 |
| 20260509202916 | 90 | 270 | 5.0 | 7.0 | 0.00 | 0.00 | 0.00 | 56 | 1010.1 |
| 20260509202412 | 90 | 272 | 3.0 | 5.0 | 0.00 | 0.00 | 0.00 | 57 | 1010.3 |
| 20260509201907 | 90 | 257 | 5.0 | 7.0 | 0.00 | 0.00 | 0.00 | 56 | 1010.4 |
| 20260509201403 | 90 | 271 | 9.0 | 13.0 | 0.00 | 0.00 | 0.00 | 57 | 1010.2 |
| 20260509200900 | 91 | 305 | 3.0 | 7.0 | 0.00 | 0.00 | 0.00 | 56 | 1010.5 |
| 20260509200400 | 91 | 255 | 8.0 | 10.0 | 0.00 | 0.00 | 0.00 | 56 | 1010.5 |
| 20260509195857 | 90 | 257 | 9.0 | 10.0 | 0.00 | 0.00 | 0.00 | 55 | 1010.4 |
| 20260509195356 | 91 | 246 | 1.0 | 3.0 | 0.00 | 0.00 | 0.00 | 54 | 1010.3 |
| 20260509194857 | 91 | 248 | 3.0 | 9.0 | 0.00 | 0.00 | 0.00 | 54 | 1010.6 |
| 20260509194353 | 92 | 218 | 5.0 | 7.0 | 0.00 | 0.00 | 0.00 | 54 | 1010.5 |
| 20260509193849 | 92 | 223 | 0.0 | 1.0 | 0.00 | 0.00 | 0.00 | 51 | 1010.8 |
| 20260509193344 | 92 | 259 | 5.0 | 7.0 | 0.00 | 0.00 | 0.00 | 54 | 1010.7 |
| 20260509192840 | 92 | 286 | 3.0 | 5.0 | 0.00 | 0.00 | 0.00 | 56 | 1010.7 |
| 20260509192336 | 91 | 221 | 4.0 | 5.0 | 0.00 | 0.00 | 0.00 | 53 | 1010.8 |
| 20260509191832 | 91 | 219 | 4.0 | 7.0 | 0.00 | 0.00 | 0.00 | 54 | 1010.9 |
| 20260509191328 | 91 | 264 | 4.0 | 6.0 | 0.00 | 0.00 | 0.00 | 55 | 1010.7 |
| 20260509190824 | 91 | 269 | 6.0 | 7.0 | 0.00 | 0.00 | 0.00 | 54 | 1010.8 |
| 20260509190321 | 91 | 310 | 6.0 | 8.0 | 0.00 | 0.00 | 0.00 | 55 | 1011.1 |
| 20260509185819 | 91 | 275 | 7.0 | 8.0 | 0.00 | 0.00 | 0.00 | 55 | 1011.1 |
| 20260509185314 | 92 | 226 | 4.0 | 6.0 | 0.00 | 0.00 | 0.00 | 55 | 1010.9 |
| 20260509184812 | 92 | 264 | 0.0 | 0.0 | 0.00 | 0.00 | 0.00 | 54 | 1010.9 |
| 20260509184310 | 92 | 209 | 0.0 | 0.0 | 0.00 | 0.00 | 0.00 | 53 | 1011.0 |
| 20260509183806 | 92 | 279 | 0.0 | 1.0 | 0.00 | 0.00 | 0.00 | 53 | 1011.0 |
| 20260509183301 | 93 | 255 | 8.0 | 10.0 | 0.00 | 0.00 | 0.00 | 52 | 1011.3 |
| 20260509182757 | 92 | 249 | 4.0 | 5.0 | 0.00 | 0.00 | 0.00 | 56 | 1011.5 |
| 20260509182254 | 91 | 237 | 3.0 | 6.0 | 0.00 | 0.00 | 0.00 | 53 | 1011.6 |
| 20260509181751 | 93 | 251 | 0.0 | 0.0 | 0.00 | 0.00 | 0.00 | 51 | 1011.5 |
| 20260509181249 | 91 | 240 | 2.0 | 3.0 | 0.00 | 0.00 | 0.00 | 55 | 1011.4 |
| 20260509180746 | 91 | 204 | 6.0 | 7.0 | 0.00 | 0.00 | 0.00 | 55 | 1011.6 |
| 20260509180242 | 92 | 339 | 1.0 | 2.0 | 0.00 | 0.00 | 0.00 | 53 | 1011.7 |
| 20260509175738 | 93 | 338 | 5.0 | 7.0 | 0.00 | 0.00 | 0.00 | 53 | 1011.7 |
| 20260509175235 | 93 | 272 | 5.0 | 8.0 | 0.00 | 0.00 | 0.00 | 52 | 1011.7 |
| 20260509174731 | 93 | 219 | 0.0 | 0.0 | 0.00 | 0.00 | 0.00 | 50 | 1011.6 |
| 20260509174226 | 92 | 273 | 5.0 | 7.0 | 0.00 | 0.00 | 0.00 | 53 | 1011.5 |
| 20260509173723 | 91 | 272 | 4.0 | 5.0 | 0.00 | 0.00 | 0.00 | 53 | 1011.7 |
| 20260509173219 | 91 | 252 | 3.0 | 6.0 | 0.00 | 0.00 | 0.00 | 53 | 1011.6 |
| 20260509172715 | 92 | 239 | 3.0 | 6.0 | 0.00 | 0.00 | 0.00 | 52 | 1011.7 |
| 20260509172211 | 91 | 293 | 5.0 | 6.0 | 0.00 | 0.00 | 0.00 | 53 | 1011.6 |
| 20260509171707 | 92 | 284 | 7.0 | 9.0 | 0.00 | 0.00 | 0.00 | 53 | 1011.6 |
| 20260509171203 | 92 | 216 | 0.0 | 0.0 | 0.00 | 0.00 | 0.00 | 51 | 1011.7 |
| 20260509170700 | 93 | 249 | 1.0 | 2.0 | 0.00 | 0.00 | 0.00 | 52 | 1011.8 |
| 20260509170156 | 91 | 213 | 1.0 | 2.0 | 0.00 | 0.00 | 0.00 | 54 | 1011.6 |
| 20260509165655 | 92 | 258 | 5.0 | 6.0 | 0.00 | 0.00 | 0.00 | 55 | 1011.7 |
| 20260509165150 | 91 | 318 | 0.0 | 0.0 | 0.00 | 0.00 | 0.00 | 56 | 1012.0 |
| 20260509164647 | 91 | 215 | 1.0 | 2.0 | 0.00 | 0.00 | 0.00 | 55 | 1011.9 |
| 20260509164142 | 91 | 294 | 2.0 | 5.0 | 0.00 | 0.00 | 0.00 | 56 | 1012.0 |
| 20260509163640 | 90 | 263 | 4.0 | 6.0 | 0.00 | 0.00 | 0.00 | 57 | 1011.8 |
| 20260509163136 | 91 | 280 | 0.0 | 0.0 | 0.00 | 0.00 | 0.00 | 56 | 1011.8 |
| 20260509162633 | 92 | 267 | 3.0 | 6.0 | 0.00 | 0.00 | 0.00 | 56 | 1012.0 |
| 20260509162129 | 93 | 202 | 0.0 | 0.0 | 0.00 | 0.00 | 0.00 | 55 | 1012.0 |
| 20260509161625 | 92 | 162 | 0.0 | 1.0 | 0.00 | 0.00 | 0.00 | 56 | 1012.0 |
| 20260509161120 | 90 | 187 | 0.0 | 0.0 | 0.00 | 0.00 | 0.00 | 59 | 1012.1 |
| 20260509160617 | 90 | 248 | 0.0 | 0.0 | 0.00 | 0.00 | 0.00 | 66 | 1012.0 |
| 20260509160112 | 89 | 187 | 0.0 | 0.0 | 0.00 | 0.00 | 0.00 | 65 | 1012.3 |
| 20260509155609 | 89 | 254 | 0.0 | 0.0 | 0.00 | 0.00 | 0.00 | 67 | 1012.0 |
| 20260509155105 | 87 | 225 | 0.0 | 0.0 | 0.00 | 0.00 | 0.00 | 69 | 1012.1 |
| 20260509154600 | 87 | 279 | 0.0 | 0.0 | 0.00 | 0.00 | 0.00 | 72 | 1012.4 |
| 20260509154058 | 87 | 238 | 0.0 | 0.0 | 0.00 | 0.00 | 0.00 | 71 | 1012.1 |
| 20260509153555 | 87 | 174 | 0.0 | 0.0 | 0.00 | 0.00 | 0.00 | 73 | 1012.3 |
| 20260509153052 | 87 | 189 | 0.0 | 0.0 | 0.00 | 0.00 | 0.00 | 69 | 1012.3 |
| 20260509152548 | 87 | 210 | 0.0 | 0.0 | 0.00 | 0.00 | 0.00 | 70 | 1012.5 |
| 20260509152046 | 85 | 226 | 0.0 | 0.0 | 0.00 | 0.00 | 0.00 | 72 | 1012.6 |
| 20260509151541 | 85 | 264 | 1.0 | 3.0 | 0.00 | 0.00 | 0.00 | 73 | 1013.0 |
| 20260509151039 | 86 | 156 | 0.0 | 0.0 | 0.00 | 0.00 | 0.00 | 74 | 1012.8 |
| 20260509150537 | 85 | 144 | 0.0 | 0.0 | 0.00 | 0.00 | 0.00 | 73 | 1012.9 |
| 20260509150035 | 83 | 265 | 0.0 | 0.0 | 0.00 | 0.00 | 0.00 | 75 | 1012.9 |
| 20260509145530 | 84 | 205 | 0.0 | 0.0 | 0.00 | 0.00 | 0.00 | 77 | 1012.9 |
| 20260509145025 | 82 | 243 | 0.0 | 0.0 | 0.00 | 0.00 | 0.00 | 79 | 1013.0 |
| 20260509144523 | 83 | 136 | 0.0 | 0.0 | 0.00 | 0.00 | 0.00 | 79 | 1012.9 |
| 20260509144020 | 83 | 172 | 0.0 | 0.0 | 0.00 | 0.00 | 0.00 | 80 | 1012.8 |
| 20260509143517 | 84 | 156 | 0.0 | 0.0 | 0.00 | 0.00 | 0.00 | 78 | 1013.1 |
| 20260509143015 | 84 | 188 | 0.0 | 0.0 | 0.00 | 0.00 | 0.00 | 78 | 1013.1 |
| 20260509142510 | 83 | 131 | 0.0 | 0.0 | 0.00 | 0.00 | 0.00 | 80 | 1012.9 |
| 20260509142005 | 82 | 170 | 0.0 | 0.0 | 0.00 | 0.00 | 0.00 | 80 | 1013.0 |
| 20260509141502 | 82 | 221 | 0.0 | 0.0 | 0.00 | 0.00 | 0.00 | 83 | 1012.7 |
| 20260509140959 | 80 | 141 | 0.0 | 0.0 | 0.00 | 0.00 | 0.00 | 85 | 1012.8 |
| 20260509140455 | 79 | 176 | 0.0 | 0.0 | 0.00 | 0.00 | 0.00 | 89 | 1012.8 |
| 20260509135954 | 77 | 161 | 0.0 | 0.0 | 0.00 | 0.00 | 0.00 | 91 | 1013.0 |
| 20260509135451 | 77 | 158 | 0.0 | 0.0 | 0.00 | 0.00 | 0.00 | 94 | 1012.9 |
| 20260509134948 | 76 | 167 | 0.0 | 0.0 | 0.00 | 0.00 | 0.00 | 94 | 1012.9 |
| 20260509134445 | 76 | 173 | 0.0 | 0.0 | 0.00 | 0.00 | 0.00 | 95 | 1012.7 |
| 20260509133943 | 75 | 159 | 0.0 | 0.0 | 0.00 | 0.00 | 0.00 | 96 | 1013.0 |
| 20260509133439 | 74 | 166 | 0.0 | 0.0 | 0.00 | 0.00 | 0.00 | 97 | 1012.9 |
| 20260509132937 | 74 | 169 | 0.0 | 0.0 | 0.00 | 0.00 | 0.00 | 97 | 1013.0 |
| 20260509132435 | 73 | 165 | 0.0 | 0.0 | 0.00 | 0.00 | 0.00 | 97 | 1013.0 |
| 20260509131932 | 74 | 154 | 0.0 | 0.0 | 0.00 | 0.00 | 0.00 | 98 | 1013.0 |
| 20260509131429 | 73 | 154 | 0.0 | 0.0 | 0.00 | 0.00 | 0.00 | 98 | 1013.0 |
| 20260509130926 | 73 | 99 | 0.0 | 0.0 | 0.00 | 0.00 | 0.00 | 98 | 1013.1 |
| 20260509130421 | 73 | 117 | 0.0 | 0.0 | 0.00 | 0.00 | 0.00 | 98 | 1013.1 |
| 20260509125918 | 73 | 141 | 0.0 | 0.0 | 0.00 | 0.00 | 0.00 | 98 | 1013.1 |
| 20260509125415 | 73 | 153 | 0.0 | 0.0 | 0.00 | 0.00 | 0.00 | 98 | 1013.0 |
| 20260509124911 | 73 | 187 | 0.0 | 0.0 | 0.00 | 0.00 | 0.00 | 98 | 1013.1 |
| 20260509124408 | 73 | 158 | 0.0 | 0.0 | 0.00 | 0.00 | 0.00 | 98 | 1013.1 |
| 20260509123906 | 73 | 118 | 0.0 | 0.0 | 0.00 | 0.00 | 0.00 | 98 | 1013.2 |
| 20260509123403 | 73 | 153 | 0.0 | 0.0 | 0.00 | 0.00 | 0.00 | 98 | 1013.0 |
| 20260509122858 | 73 | 165 | 0.0 | 0.0 | 0.00 | 0.00 | 0.00 | 98 | 1013.1 |
| 20260509122355 | 72 | 149 | 0.0 | 0.0 | 0.00 | 0.00 | 0.00 | 98 | 1013.0 |
| 20260509121852 | 72 | 151 | 0.0 | 0.0 | 0.00 | 0.00 | 0.00 | 98 | 1013.0 |
| 20260509121349 | 72 | 151 | 0.0 | 0.0 | 0.00 | 0.00 | 0.00 | 98 | 1012.8 |
| 20260509120848 | 72 | 168 | 0.0 | 0.0 | 0.00 | 0.00 | 0.00 | 98 | 1013.1 |
| 20260509120345 | 72 | 155 | 0.0 | 0.0 | 0.00 | 0.00 | 0.00 | 98 | 1013.0 |
| 20260509115843 | 72 | 180 | 0.0 | 0.0 | 0.00 | 0.00 | 0.00 | 98 | 1012.9 |
| 20260509115340 | 72 | 172 | 0.0 | 0.0 | 0.00 | 0.00 | 0.00 | 98 | 1012.7 |
| 20260509114838 | 72 | 162 | 0.0 | 0.0 | 0.00 | 0.00 | 0.00 | 98 | 1012.5 |
| 20260509114336 | 72 | 157 | 0.0 | 0.0 | 0.00 | 0.00 | 0.00 | 98 | 1012.7 |
| 20260509113835 | 71 | 153 | 0.0 | 0.0 | 0.00 | 0.00 | 0.00 | 98 | 1012.5 |
| 20260509113331 | 71 | 148 | 0.0 | 0.0 | 0.00 | 0.00 | 0.00 | 98 | 1012.4 |
| 20260509112828 | 71 | 161 | 0.0 | 0.0 | 0.00 | 0.00 | 0.00 | 98 | 1012.0 |
| 20260509112325 | 71 | 159 | 0.0 | 0.0 | 0.00 | 0.00 | 0.00 | 98 | 1012.0 |
| 20260509111822 | 71 | 151 | 0.0 | 0.0 | 0.00 | 0.00 | 0.00 | 98 | 1012.3 |
| 20260509111319 | 71 | 157 | 0.0 | 0.0 | 0.00 | 0.00 | 0.00 | 98 | 1011.9 |
| 20260509110817 | 71 | 169 | 0.0 | 0.0 | 0.00 | 0.00 | 0.00 | 98 | 1012.0 |
| 20260509110313 | 71 | 170 | 0.0 | 0.0 | 0.00 | 0.00 | 0.00 | 98 | 1011.6 |
| 20260509105812 | 71 | 172 | 0.0 | 0.0 | 0.00 | 0.00 | 0.00 | 98 | 1011.5 |
| 20260509105309 | 71 | 169 | 0.0 | 0.0 | 0.00 | 0.00 | 0.00 | 98 | 1011.8 |
| 20260509104806 | 71 | 176 | 0.0 | 0.0 | 0.00 | 0.00 | 0.00 | 98 | 1011.9 |
| 20260509104302 | 70 | 172 | 0.0 | 0.0 | 0.00 | 0.00 | 0.00 | 98 | 1011.7 |
| 20260509103800 | 71 | 140 | 0.0 | 0.0 | 0.00 | 0.00 | 0.00 | 98 | 1011.4 |
| 20260509103257 | 71 | 184 | 0.0 | 0.0 | 0.00 | 0.00 | 0.00 | 98 | 1011.1 |
| 20260509102756 | 71 | 179 | 0.0 | 0.0 | 0.00 | 0.00 | 0.00 | 98 | 1011.3 |
| 20260509102253 | 71 | 178 | 0.0 | 0.0 | 0.00 | 0.00 | 0.00 | 98 | 1011.2 |
| 20260509101749 | 71 | 178 | 0.0 | 0.0 | 0.00 | 0.00 | 0.00 | 98 | 1011.2 |
| 20260509101245 | 71 | 183 | 0.0 | 0.0 | 0.00 | 0.00 | 0.00 | 98 | 1011.4 |
| 20260509100743 | 71 | 179 | 0.0 | 0.0 | 0.00 | 0.00 | 0.00 | 98 | 1011.3 |
| 20260509100240 | 70 | 176 | 0.0 | 0.0 | 0.00 | 0.00 | 0.00 | 98 | 1011.2 |
| 20260509095736 | 71 | 176 | 0.0 | 0.0 | 0.00 | 0.00 | 0.00 | 98 | 1011.3 |
| 20260509095234 | 70 | 176 | 0.0 | 0.0 | 0.00 | 0.00 | 0.00 | 98 | 1011.4 |
| 20260509094731 | 71 | 172 | 0.0 | 0.0 | 0.00 | 0.00 | 0.00 | 98 | 1011.4 |
| 20260509094227 | 71 | 172 | 0.0 | 0.0 | 0.00 | 0.00 | 0.00 | 98 | 1011.4 |
| 20260509093725 | 71 | 169 | 0.0 | 0.0 | 0.00 | 0.00 | 0.00 | 98 | 1011.5 |
| 20260509093222 | 71 | 162 | 0.0 | 0.0 | 0.00 | 0.00 | 0.00 | 98 | 1011.2 |
| 20260509092721 | 71 | 176 | 0.0 | 0.0 | 0.00 | 0.00 | 0.00 | 98 | 1011.4 |
| 20260509092219 | 71 | 176 | 0.0 | 0.0 | 0.00 | 0.00 | 0.00 | 98 | 1011.2 |
| 20260509091716 | 71 | 172 | 0.0 | 0.0 | 0.00 | 0.00 | 0.00 | 97 | 1011.4 |
| 20260509091212 | 72 | 169 | 0.0 | 0.0 | 0.00 | 0.00 | 0.00 | 97 | 1011.3 |
| 20260509090710 | 73 | 230 | 0.0 | 0.0 | 0.00 | 0.00 | 0.00 | 98 | 1011.5 |
| 20260509090207 | 71 | 143 | 0.0 | 0.0 | 0.00 | 0.00 | 0.00 | 97 | 1011.6 |
| 20260509085705 | 71 | 169 | 0.0 | 0.0 | 0.00 | 0.00 | 0.00 | 97 | 1011.3 |
| 20260509085201 | 71 | 169 | 0.0 | 0.0 | 0.00 | 0.00 | 0.00 | 98 | 1011.2 |
| 20260509084658 | 71 | 161 | 0.0 | 0.0 | 0.00 | 0.00 | 0.00 | 97 | 1011.4 |
| 20260509084154 | 71 | 161 | 0.0 | 0.0 | 0.00 | 0.00 | 0.00 | 97 | 1011.5 |
| 20260509083653 | 72 | 161 | 0.0 | 0.0 | 0.00 | 0.00 | 0.00 | 97 | 1011.7 |
| 20260509083148 | 71 | 169 | 0.0 | 0.0 | 0.00 | 0.00 | 0.00 | 97 | 1011.5 |
| 20260509082646 | 71 | 169 | 0.0 | 0.0 | 0.00 | 0.00 | 0.00 | 97 | 1011.4 |
| 20260509082142 | 72 | 162 | 0.0 | 0.0 | 0.00 | 0.00 | 0.00 | 97 | 1011.6 |
| 20260509081640 | 72 | 165 | 0.0 | 0.0 | 0.00 | 0.00 | 0.00 | 97 | 1011.5 |
| 20260509081137 | 72 | 168 | 0.0 | 0.0 | 0.00 | 0.00 | 0.00 | 97 | 1011.4 |
| 20260509080635 | 72 | 169 | 0.0 | 0.0 | 0.00 | 0.00 | 0.00 | 97 | 1011.6 |
| 20260509080133 | 71 | 169 | 0.0 | 0.0 | 0.00 | 0.00 | 0.00 | 97 | 1011.6 |
| 20260509075630 | 72 | 165 | 0.0 | 0.0 | 0.00 | 0.00 | 0.00 | 97 | 1011.7 |
| 20260509075128 | 72 | 163 | 0.0 | 0.0 | 0.00 | 0.00 | 0.00 | 97 | 1011.9 |
| 20260509074624 | 72 | 162 | 0.0 | 0.0 | 0.00 | 0.00 | 0.00 | 97 | 1011.6 |
| 20260509074121 | 72 | 161 | 0.0 | 0.0 | 0.00 | 0.00 | 0.00 | 97 | 1012.0 |
| 20260509073618 | 72 | 154 | 0.0 | 0.0 | 0.00 | 0.00 | 0.00 | 97 | 1012.0 |
| 20260509073114 | 72 | 165 | 0.0 | 0.0 | 0.00 | 0.00 | 0.00 | 97 | 1011.9 |
| 20260509072611 | 72 | 163 | 0.0 | 0.0 | 0.00 | 0.00 | 0.00 | 97 | 1012.0 |
| 20260509072108 | 72 | 155 | 0.0 | 0.0 | 0.00 | 0.00 | 0.00 | 97 | 1011.9 |
| 20260509071604 | 73 | 169 | 0.0 | 0.0 | 0.00 | 0.00 | 0.00 | 97 | 1011.9 |
| 20260509071102 | 72 | 169 | 0.0 | 0.0 | 0.00 | 0.00 | 0.00 | 97 | 1012.1 |
| 20260509070559 | 72 | 161 | 0.0 | 0.0 | 0.00 | 0.00 | 0.00 | 96 | 1012.1 |
| 20260509070055 | 72 | 156 | 0.0 | 0.0 | 0.00 | 0.00 | 0.00 | 96 | 1012.1 |
| 20260509065550 | 72 | 161 | 0.0 | 0.0 | 0.00 | 0.00 | 0.00 | 96 | 1012.4 |
| 20260509065047 | 73 | 159 | 0.0 | 0.0 | 0.00 | 0.00 | 0.00 | 96 | 1012.3 |
| 20260509064544 | 73 | 157 | 0.0 | 0.0 | 0.00 | 0.00 | 0.00 | 96 | 1012.3 |
| 20260509064043 | 73 | 156 | 0.0 | 0.0 | 0.00 | 0.00 | 0.00 | 96 | 1012.6 |
| 20260509063538 | 73 | 148 | 0.0 | 0.0 | 0.00 | 0.00 | 0.00 | 96 | 1012.6 |
| 20260509063035 | 72 | 157 | 0.0 | 0.0 | 0.00 | 0.00 | 0.00 | 96 | 1012.7 |
| 20260509062532 | 72 | 156 | 0.0 | 0.0 | 0.00 | 0.00 | 0.00 | 96 | 1012.8 |
| 20260509062030 | 73 | 156 | 0.0 | 0.0 | 0.00 | 0.00 | 0.00 | 96 | 1012.9 |
| 20260509061526 | 73 | 151 | 0.0 | 0.0 | 0.00 | 0.00 | 0.00 | 96 | 1012.8 |
| 20260509061024 | 73 | 155 | 0.0 | 0.0 | 0.00 | 0.00 | 0.00 | 96 | 1012.9 |
| 20260509060521 | 73 | 155 | 0.0 | 0.0 | 0.00 | 0.00 | 0.00 | 96 | 1012.8 |
| 20260509060017 | 73 | 149 | 0.0 | 0.0 | 0.00 | 0.00 | 0.00 | 96 | 1013.1 |
| 20260509055512 | 73 | 155 | 0.0 | 0.0 | 0.00 | 0.00 | 0.00 | 96 | 1013.0 |
| 20260509055009 | 73 | 151 | 0.0 | 0.0 | 0.00 | 0.00 | 0.00 | 96 | 1012.8 |
| 20260509054505 | 73 | 155 | 0.0 | 0.0 | 0.00 | 0.00 | 0.00 | 96 | 1013.1 |
| 20260509054004 | 73 | 151 | 0.0 | 0.0 | 0.00 | 0.00 | 0.00 | 96 | 1013.4 |
| 20260509053502 | 73 | 151 | 0.0 | 0.0 | 0.00 | 0.00 | 0.00 | 95 | 1013.4 |
| 20260509052958 | 74 | 151 | 0.0 | 0.0 | 0.00 | 0.00 | 0.00 | 95 | 1013.6 |
| 20260509052456 | 74 | 149 | 0.0 | 0.0 | 0.00 | 0.00 | 0.00 | 95 | 1013.5 |
| 20260509051954 | 74 | 151 | 0.0 | 0.0 | 0.00 | 0.00 | 0.00 | 95 | 1013.5 |